GW4144 Weather Reports


Display with metric or nautical units.
time (UTC)temp
F
wind
direction
speed
MPH
gust
MPH
rain 1hr
in
rain 24hr
in
rain mn
in
humidity
%
barometer
mb
20260507042114 60 0.0 0.0 0.00 0.00 0.00 76 1020.7
20260507041113 60 0.0 0.0 0.00 0.00 0.00 75 1020.7
20260507040113 61 349 0.0 1.0 0.00 0.00 0.00 74 1020.5
20260507035112 61 0.0 2.0 0.00 0.00 0.00 73 1020.4
20260507034111 62 306 0.0 2.0 0.00 0.00 0.00 72 1020.4
20260507033110 62 313 0.0 2.0 0.00 0.00 0.00 71 1020.3
20260507032110 62 334 0.0 2.0 0.00 0.00 0.00 71 1020.0
20260507031129 62 0.0 2.0 0.00 0.00 0.00 70 1020.0
20260507030109 63 318 1.0 3.0 0.00 0.00 0.00 69 1019.9
20260507025108 63 356 1.0 2.0 0.00 0.00 0.00 68 1019.8
20260507024107 64 350 3.0 4.0 0.00 0.00 0.00 66 1019.7
20260507023147 65 300 1.0 3.0 0.00 0.00 0.00 64 1019.6
20260507022106 65 311 1.0 2.0 0.00 0.00 0.00 62 1019.6
20260507021105 66 315 3.0 4.0 0.00 0.00 0.00 62 1019.6
20260507020105 67 334 2.0 4.0 0.00 0.00 0.00 61 1019.5
20260507015105 67 316 2.0 5.0 0.00 0.00 0.00 60 1019.5
20260507014104 67 312 4.0 6.0 0.00 0.00 0.00 59 1019.4
20260507013103 67 272 3.0 4.0 0.00 0.00 0.00 59 1019.5
20260507012102 68 287 3.0 5.0 0.00 0.00 0.00 59 1019.5
20260507011102 68 327 4.0 6.0 0.00 0.00 0.00 59 1019.3
20260507010101 68 291 3.0 5.0 0.00 0.00 0.00 59 1019.3
20260507005101 69 322 4.0 7.0 0.00 0.00 0.00 58 1019.4
20260507004100 69 315 4.0 6.0 0.00 0.00 0.00 58 1019.4
20260507003059 70 314 5.0 7.0 0.00 0.00 0.00 57 1019.4
20260507002059 69 293 4.0 9.0 0.00 0.00 0.00 57 1019.4
20260507001058 69 332 4.0 9.0 0.00 0.00 0.00 57 1019.3
20260507000057 70 322 5.0 8.0 0.00 0.00 0.00 57 1019.2
20260506235057 70 297 4.0 7.0 0.00 0.00 0.00 56 1019.2
20260506234056 70 329 5.0 7.0 0.00 0.00 0.00 56 1019.2
20260506233117 70 310 5.0 7.0 0.00 0.00 0.00 57 1019.4
20260506232055 70 302 4.0 9.0 0.00 0.00 0.00 56 1019.3
20260506231054 70 310 5.0 8.0 0.00 0.00 0.00 57 1019.4
20260506230115 70 320 6.0 12.0 0.00 0.00 0.00 57 1019.5
20260506225053 71 316 5.0 8.0 0.00 0.00 0.00 56 1019.5
20260506224053 71 316 5.0 12.0 0.00 0.00 0.00 57 1019.5
20260506223052 71 300 3.0 5.0 0.00 0.00 0.00 55 1019.7
20260506222052 71 311 6.0 9.0 0.00 0.00 0.00 56 1019.8
20260506221052 72 319 4.0 7.0 0.00 0.00 0.00 56 1019.9
20260506220050 72 272 4.0 7.0 0.00 0.00 0.00 56 1020.0
20260506215050 72 324 4.0 11.0 0.00 0.00 0.00 57 1020.2
20260506214049 71 333 5.0 11.0 0.00 0.00 0.00 58 1020.2
20260506213049 72 324 6.0 10.0 0.00 0.00 0.00 57 1020.3
20260506205611 73 305 4.0 11.0 0.00 0.00 0.00 56 1020.5
20260506204610 72 312 5.0 10.0 0.00 0.00 0.00 58 1020.4
20260506203610 71 340 5.0 7.0 0.00 0.00 0.00 59 1020.6
20260506202609 73 319 3.0 9.0 0.00 0.00 0.00 56 1020.6
20260506201609 73 284 3.0 6.0 0.00 0.00 0.00 56 1020.8
20260506200608 73 290 2.0 4.0 0.00 0.00 0.00 54 1020.8
20260506195608 73 277 2.0 6.0 0.00 0.00 0.00 53 1020.7
20260506194607 72 310 3.0 5.0 0.00 0.00 0.00 53 1020.9
20260506193606 71 274 2.0 4.0 0.00 0.00 0.00 53 1021.0
20260506192605 72 277 2.0 3.0 0.00 0.00 0.00 53 1021.0
20260506191605 70 293 2.0 6.0 0.00 0.00 0.00 54 1021.1
20260506190604 71 321 3.0 4.0 0.00 0.00 0.00 53 1021.2
20260506185603 69 294 3.0 5.0 0.00 0.00 0.00 53 1021.3
20260506184603 70 1 4.0 8.0 0.00 0.00 0.00 53 1021.4
20260506183603 70 360 3.0 4.0 0.00 0.00 0.00 53 1021.3
20260506182623 70 22 3.0 8.0 0.00 0.00 0.00 53 1021.4
20260506181601 68 27 2.0 4.0 0.00 0.00 0.00 53 1021.5
20260506180600 70 91 1.0 2.0 0.00 0.00 0.00 51 1021.7
20260506175620 68 54 2.0 3.0 0.00 0.00 0.00 53 1021.6
20260506174619 67 3 1.0 3.0 0.00 0.00 0.00 54 1021.6
20260506173558 67 320 4.0 6.0 0.00 0.00 0.00 55 1021.6
20260506172558 67 337 2.0 5.0 0.00 0.00 0.00 54 1021.6
20260506171558 67 43 1.0 2.0 0.00 0.00 0.00 53 1021.7
20260506170637 65 15 1.0 4.0 0.00 0.00 0.00 56 1021.7
20260506165556 66 291 1.0 3.0 0.00 0.00 0.00 55 1021.7
20260506164556 65 289 1.0 3.0 0.00 0.00 0.00 56 1021.6
20260506163555 64 172 0.0 2.0 0.00 0.00 0.00 56 1021.6
20260506162555 64 162 0.0 2.0 0.00 0.00 0.00 58 1021.7
20260506161554 64 54 1.0 4.0 0.00 0.00 0.00 59 1021.7
20260506160553 62 126 1.0 2.0 0.00 0.00 0.00 65 1021.6
20260506155733 61 95 2.0 4.0 0.00 0.00 0.00 69 1021.7
20260506154553 61 64 2.0 4.0 0.00 0.00 0.00 70 1021.7
20260506153552 59 63 3.0 4.0 0.00 0.00 0.00 72 1021.6
20260506152551 59 60 2.0 4.0 0.00 0.00 0.00 73 1021.7
20260506151551 59 87 1.0 5.0 0.00 0.00 0.00 74 1021.7
20260506150550 57 83 3.0 5.0 0.00 0.00 0.00 77 1021.8
20260506145609 57 80 3.0 5.0 0.00 0.00 0.00 78 1021.7
20260506144549 56 103 2.0 5.0 0.00 0.00 0.00 79 1021.7
20260506143550 55 51 3.0 4.0 0.00 0.00 0.00 81 1021.7
20260506142547 52 74 1.0 3.0 0.00 0.00 0.00 86 1021.6
20260506141607 49 73 2.0 4.0 0.00 0.00 0.00 94 1021.6
20260506140547 48 80 2.0 3.0 0.00 0.00 0.00 95 1021.6
20260506135545 48 86 1.0 2.0 0.00 0.00 0.00 96 1021.6
20260506134545 46 43 2.0 4.0 0.00 0.00 0.00 97 1021.6
20260506133545 46 57 2.0 4.0 0.00 0.00 0.00 97 1021.6
20260506132545 45 42 1.0 3.0 0.00 0.00 0.00 97 1021.5
20260506131543 45 121 2.0 3.0 0.00 0.00 0.00 97 1021.4
20260506130602 45 81 2.0 3.0 0.00 0.00 0.00 97 1021.3
20260506125602 45 67 2.0 4.0 0.00 0.00 0.00 96 1021.1
20260506124541 46 133 2.0 4.0 0.00 0.00 0.00 97 1021.0
20260506123621 46 91 1.0 4.0 0.00 0.00 0.00 97 1020.9
20260506122540 46 113 1.0 2.0 0.00 0.00 0.00 96 1020.9
20260506121539 45 92 2.0 3.0 0.00 0.00 0.00 96 1020.9
20260506120539 46 83 2.0 3.0 0.00 0.00 0.00 96 1020.9
20260506115538 46 104 2.0 3.0 0.00 0.00 0.00 96 1020.8
20260506114539 46 43 0.0 3.0 0.00 0.00 0.00 96 1020.9
20260506113536 46 80 0.0 2.0 0.00 0.00 0.00 96 1020.8
20260506112536 46 104 0.0 2.0 0.00 0.00 0.00 96 1020.7
20260506111535 46 72 1.0 1.0 0.00 0.00 0.00 96 1020.7
20260506110535 46 109 0.0 1.0 0.00 0.00 0.00 96 1020.6
20260506105534 46 100 1.0 1.0 0.00 0.00 0.00 96 1020.7
20260506104553 46 74 0.0 1.0 0.00 0.00 0.00 95 1020.6
20260506103553 46 0.0 1.0 0.00 0.00 0.00 95 1020.7
20260506102532 46 98 0.0 1.0 0.00 0.00 0.00 95 1020.7
20260506101552 47 111 0.0 1.0 0.00 0.00 0.00 95 1020.9
20260506100531 47 117 1.0 2.0 0.00 0.00 0.00 96 1020.9
20260506095531 47 0.0 0.0 0.00 0.00 0.00 95 1020.8
20260506094530 47 0.0 2.0 0.00 0.00 0.00 95 1020.9
20260506093529 47 0.0 1.0 0.00 0.00 0.00 95 1020.9
20260506092529 47 80 0.0 1.0 0.00 0.00 0.00 95 1020.9
20260506091528 48 79 0.0 1.0 0.00 0.00 0.00 94 1021.0
20260506090528 48 101 1.0 2.0 0.00 0.00 0.00 94 1021.0
20260506085527 48 0.0 1.0 0.00 0.00 0.00 94 1021.0
20260506084526 48 71 0.0 1.0 0.00 0.00 0.00 93 1021.1
20260506083526 48 83 0.0 1.0 0.00 0.00 0.00 93 1021.2
20260506082525 49 0.0 1.0 0.00 0.00 0.00 93 1021.2
20260506081524 49 62 0.0 1.0 0.00 0.00 0.00 93 1021.1
20260506080524 49 0.0 1.0 0.00 0.00 0.00 93 1021.1
20260506073522 50 65 0.0 1.0 0.00 0.00 0.00 91 1021.2
20260506072522 51 100 1.0 1.0 0.00 0.00 0.00 91 1021.3
20260506071521 51 95 0.0 2.0 0.00 0.00 0.00 89 1021.1
20260506070520 51 74 0.0 2.0 0.00 0.00 0.00 89 1020.9
20260506061517 52 69 1.0 2.0 0.00 0.00 0.00 87 1020.5
20260506060537 53 61 0.0 2.0 0.00 0.00 0.00 86 1020.5
20260506050613 55 58 1.0 3.0 0.00 0.00 0.00 83 1020.1
20260506044612 56 21 2.0 5.0 0.00 0.00 0.00 80 1019.6
20260506043611 56 322 0.0 1.0 0.00 0.00 0.00 78 1019.6